Home   Weather   Fairfield Acres   Past weeks
Flag for USA

Past Weather in Fairfield Acres, South Carolina, USA — Yesterday and Last 2 Weeks

Now
61 °F

Sunny.


Feels Like: 61 °F
Forecast: 58 / 37 °F
Wind: 10 mph from Southwest

Location: Greenville Downtown Airport

Current Time: Dec 15, 2019 at 3:48:54 pm

Latest Report: Dec 15, 2019 at 2:53 pm


Visibility: 10 mi

Pressure: 30.08 "Hg

Humidity: 41%

Dew Point: 37 °F

Location of Fairfield AcresLocation

Past Weather in Fairfield Acres — Graph

°F

Fairfield Acres Temperature Yesterday

Maximum temperature yesterday: 59 °F (at 12:53 pm)
Minimum temperature yesterday: 44 °F (at 11:53 pm)
Average temperature yesterday: 50 °F

High & Low Weather Summary for the Past Weeks

 TemperatureHumidityPressure
High66 °F (Dec 1, 12:53 pm)100% (Dec 9, 3:06 pm)30.64 "Hg (Dec 9, 3:06 pm)
Low32 °F (Dec 3, 6:53 am)18% (Dec 4, 4:53 pm)29.51 "Hg (Dec 1, 2:53 pm)
Average48 °F67%30.03 "Hg
* Reported Nov 30 1:00 pm — Dec 15 1:53 pm, Fairfield Acres. Weather by CustomWeather, © 2019

Note: Actual official high and low records may vary slightly from our data, if they occured in-between our weather recording intervals... More about our weather records

Fairfield Acres Weather History for the Previous 24 Hours

Scroll right to see more
 ConditionsComfort  
Time TempWeatherWind HumidityBarometerVisibility
1:53 pm
Sun, Dec 15
60 °FSunny.8 mph41%30.09 "Hg10 mi
12:53 pm57 °FSunny.9 mph47%30.11 "Hg10 mi
11:53 am56 °FSunny.10 mph49%30.12 "Hg10 mi
10:53 am52 °FScattered clouds.7 mph59%30.13 "Hg10 mi
9:53 am47 °FSunny.No wind71%30.12 "Hg10 mi
8:53 am42 °FSunny.No wind85%30.09 "Hg10 mi
7:53 am38 °FSunny.No wind93%30.06 "Hg10 mi
6:53 am36 °FClear.5 mph89%30.04 "Hg10 mi
5:53 am39 °FClear.3 mph89%30.00 "Hg10 mi
4:53 am39 °FClear.3 mph89%29.98 "Hg10 mi
3:53 am39 °FClear.No wind86%29.96 "Hg10 mi
2:53 am42 °FClear.No wind82%29.94 "Hg10 mi
1:53 am43 °FClear.3 mph82%29.93 "Hg10 mi
12:53 am43 °FClear.8 mph82%29.91 "Hg10 mi
11:53 pm
Sat, Dec 14
44 °FClear.9 mph76%29.90 "Hg10 mi
10:53 pm45 °FClear.6 mph74%29.88 "Hg10 mi
9:53 pm45 °FClear.6 mph74%29.87 "Hg10 mi
8:53 pm47 °FClear.9 mph69%29.85 "Hg10 mi
7:53 pm49 °FClear.9 mph64%29.82 "Hg10 mi
6:53 pm51 °FClear.13 mph59%29.78 "Hg10 mi
5:53 pm52 °FClear.17 mph57%29.75 "Hg10 mi
4:53 pm55 °FPassing clouds.16 mph53%29.71 "Hg10 mi
3:53 pm58 °FSunny.12 mph43%29.67 "Hg10 mi
Weather by CustomWeather, © 2019

See weather overview

Advertising